Location: CNYAC Observatory
(43.2150°N, 74.9500°W)
Time: 12:55:30
(UTC-04:00)

Daily predictions for brighter satellites

Satellite Brightness Start Highest point End
(mag) Time Altitude Azimuth Time Altitude Azimuth Time Altitude Azimuth
Cosmos 1782 3.0 20:50:08 10° N 20:54:11 80° W 20:58:13 10° S
Cosmos 2341 Rocket 4.4 20:51:43 10° SSE 20:57:39 46° E 21:03:34 10° NNE
Cosmos 1833 Rocket 4.0 20:53:32 10° N 20:58:13 26° NE 21:02:52 10° ESE
Envisat 3.4 20:56:14 10° SE 21:01:05 48° ENE 21:05:58 10° N
Cosmos 1844 Rocket 3.2 20:57:02 10° SW 21:02:39 66° WNW 21:08:16 10° NNE
deb Chang Zheng 4 4.2 20:59:51 10° NNE 21:03:59 37° E 21:08:06 10° SSE
Cosmos 1825 2.4 21:00:30 10° SSE 21:04:09 48° E 21:07:52 10° NNE
Cosmos 2278 Rocket 2.2 21:01:47 10° SSW 21:07:24 69° ESE 21:13:04 10° NNE
ERS-1 Rocket 3.0 21:05:06 10° SSE 21:10:08 84° ENE 21:15:13 10° NNW
Timation 2 Rocket 4.0 21:07:15 10° NNW 21:13:14 65° ENE 21:19:05 10° SE
Cosmos 1420 Rocket 4.2 21:08:22 10° S 21:13:26 51° ESE 21:18:29 10° NNE
Cosmos 1844 4.1 21:08:28 10° SSW 21:14:13 72° WNW 21:20:03 10° NNE
H-2A R/B 2.2 21:10:12 10° SSE 21:14:23 56° ENE 21:18:29 10° N
ISS -2.6 21:11:36 10° WSW 21:14:49 57° NNW 21:18:02 10° NE
Cosmos 1140 Rocket 3.5 21:10:15 10° NNW 21:15:24 70° ENE 21:20:32 10° SSE
Okean 3 3.5 21:13:11 10° N 21:17:28 67° E 21:21:40 10° SSE
APEX 3.8 21:14:34 10° S 21:18:26 49° ESE 21:23:29 10° NE
Cosmos 2154 Rocket 4.0 21:13:14 10° S 21:19:27 85° E 21:25:40 10° N
Cosmos 1939 Rocket 2.8 21:15:43 10° SSE 21:19:35 80° ENE 21:23:35 10° N
Cosmos 489 Rocket 4.5 21:15:11 10° NNW 21:21:26 82° ENE 21:27:38 10° SSE
Cosmos 1238 Rocket 2.6 21:18:32 10° N 21:21:57 82° E 21:26:02 10° S
COSMOS 2487 2.8 21:18:26 10° NNW 21:22:02 66° WSW 21:25:36 10° S
BREEZE-M TANK 4.4 20:58:47 10° W 21:22:35 80° N 21:27:09 10° ENE
Abrixas 3.5 21:20:57 10° SSW 21:23:35 27° SE 21:26:14 10° E
Cosmos 2082 Rocket 2.6 21:20:50 10° NNW 21:26:23 50° ENE 21:30:58 15° SE
SPOT 5 3.2 21:23:32 10° SSE 21:28:43 62° ENE 21:34:01 10° N
Cosmos 1452 Rocket 4.3 21:29:36 10° SW 21:34:46 56° WNW 21:39:58 10° NNE
Lacrosse 5 3.1 21:35:01 10° SSE 21:38:36 20° ESE 21:42:12 10° ENE
Cosmos 1812 4.5 21:35:53 10° NNE 21:38:38 18° ENE 21:39:59 16° E
Cosmos 1184 Rocket 3.3 21:35:48 10° SSW 21:39:06 64° W 21:42:27 10° N
Intercosmos 25 3.0 21:38:00 11° S 21:41:09 55° E 21:44:16 10° NNE
Cosmos 2366 rocket 4.4 21:37:33 11° SSE 21:43:08 44° E 21:49:07 10° NNE
H-2A R/B 3.5 21:40:11 15° ESE 21:43:16 24° ENE 21:47:23 10° NNE
Cosmos 2297 3.7 21:40:25 10° SSW 21:46:04 72° ESE 21:51:49 10° NNE
MetOp-B 4.1 21:43:39 15° SSE 21:48:09 76° ENE 21:53:31 10° N
Meteor 1-14 Rocket 4.2 21:44:43 10° S 21:50:18 64° E 21:55:48 10° NNE
Meteor 2-13 Rocket 4.5 21:46:31 10° S 21:52:40 90° W 21:58:52 10° N
Okean 2 Rocket 3.3 21:49:21 10° SSW 21:53:45 71° W 21:58:10 10° N
BREEZE-M DEB (TANK) 3.5 21:55:06 10° WNW 21:56:50 23° N 21:59:16 10° ENE
Cosmos 1782 Rocket 4.4 21:54:17 10° SSW 21:58:38 51° WNW 22:03:01 10° N
SPOT 1/Viking Rocket 3.6 21:55:17 21° SSE 21:58:46 65° ENE 22:03:57 10° N
Cosmos 1242 Rocket 3.5 21:58:19 10° NNW 22:01:52 47° W 22:04:46 15° SSW
USA 229 DEB 3.8 21:54:58 10° NW 22:02:08 88° ENE 22:07:00 23° SE
USA 229 3.8 21:55:05 10° NW 22:02:14 87° NE 22:07:06 23° SE
NOSS 8 (E) 4.4 21:59:43 10° SSW 22:03:08 62° ESE 22:06:48 10° NE
Cosmos 1975 Rocket 4.4 22:07:59 10° NNW 22:11:58 36° W 22:15:56 10° SSW
ARGOS 3.1 22:09:06 25° SSE 22:12:20 76° ENE 22:17:42 10° N
YAOGAN 6 2.9 22:10:46 26° S 22:12:34 61° W 22:16:05 10° NNW
Cosmos 2369 Rocket 3.8 22:14:07 16° E 22:14:07 16° E 22:17:00 10° ENE
OAO 3 Rocket 4.0 22:10:28 10° WSW 22:14:50 31° S 22:15:30 30° SSE
Lacrosse 5 rocket 1.4 22:11:05 10° SSW 22:14:50 43° SE 22:18:26 10° ENE
Cosmos 2218 Rocket 4.0 22:08:28 10° S 22:14:52 88° E 22:21:19 10° N
PSLV R/B 4.3 22:16:18 24° SSW 22:17:32 36° W 22:20:19 10° NNW
SL-08 RB Rocket 3.7 22:15:38 31° SSE 22:17:46 71° ENE 22:22:26 10° N
CZ-4 R/B 3.8 22:13:28 10° NNE 22:18:04 56° E 22:20:06 31° SSE
Meteor 2-8 Rocket 4.4 22:12:50 10° N 22:19:02 78° E 22:22:43 26° SSE
Cosmos 1536 Rocket 3.6 22:20:33 10° N 22:25:03 85° W 22:27:02 33° S
AVUM R/B 3.6 22:21:53 10° NNW 22:25:21 62° WSW 22:26:05 47° SSW
Gbstr 26 Del rocket 3.3 22:20:27 10° NW 22:25:41 69° NNE 22:27:30 34° ESE
Cosmos 1727 Rocket 3.9 22:20:34 10° N 22:26:47 87° E 22:30:27 26° S
Landsat 7 3.8 22:28:19 38° SE 22:30:03 67° ENE 22:34:48 10° N
Cosmos 1331 Rocket 3.9 22:27:09 25° S 22:30:11 68° ESE 22:35:18 10° NNE
NOSS 8 (H) 4.4 22:30:35 20° SW 22:32:52 89° NW 22:36:44 10° NE
IGS 5A 4.0 22:32:35 38° E 22:33:19 42° ENE 22:37:15 10° N
DELTA 2 DEB (DPAF) 4.1 22:34:27 44° SE 22:35:46 72° ENE 22:40:13 10° N
CZ-4C R/B 3.3 22:36:09 53° SE 22:36:59 71° ENE 22:41:10 10° N
Cosmos 1110 Rocket 3.9 22:35:43 17° SSW 22:39:47 88° WNW 22:45:01 10° NNE
ATLAS 2AS CENTAUR R/B 4.4 22:33:34 10° NNW 22:40:40 31° NNE 22:46:59 12° E
Cosmos 1833 Rocket 3.2 22:36:59 10° NW 22:42:26 52° WSW 22:45:06 29° S
Meteor 1-20 Rocket 4.1 22:39:26 26° S 22:42:44 90° NW 22:48:16 10° N
Cosmos 1400 Rocket 4.1 22:44:16 29° ENE 22:44:16 29° ENE 22:47:18 10° NNE
Terra 1.8 22:44:32 47° SE 22:45:45 67° ENE 22:50:30 10° N
Cosmos 1536 4.3 22:49:24 24° ENE 22:49:24 24° ENE 22:51:53 10° NNE
NOSS 3-1 (C) 4.1 22:41:25 10° NW 22:48:56 74° NE 22:53:00 33° SE
ISS -0.6 22:49:13 10° WNW 22:51:44 20° N 22:54:16 10° NE
Cosmos 1025 Rocket 3.8 22:47:43 10° N 22:51:49 37° ENE 22:51:59 36° E
DMSP B5D2-2 4.1 22:46:44 10° NNE 22:51:55 62° ESE 22:53:14 47° SSE
USA 234 3.6 22:51:47 10° ENE 22:57:49 39° SE 22:58:06 39° SE
Cosmos 1821 Rocket 4.2 22:57:21 42° SE 22:59:00 52° E 23:05:00 10° NNE
Abrixas 4.1 22:56:28 10° W 22:58:22 32° W 22:58:22 32° W
Cosmos 1809 Rocket 4.5 23:03:32 45° SSE 23:05:20 66° E 23:11:29 10° NNE
Cosmos 1300 Rocket 3.8 23:04:46 45° SW 23:05:57 65° W 23:10:24 10° N
Cosmos 1934 Rocket 4.2 23:05:08 44° ESE 23:06:15 49° E 23:12:03 10° NNE
Spot 4 3.8 23:06:33 62° SSE 23:07:22 82° ENE 23:12:15 10° NNW
Cosmos 1486 Rocket 4.1 23:02:45 10° NNW 23:08:05 72° WSW 23:09:19 52° S
Cosmos 1354 Rocket 4.1 23:04:19 10° NNW 23:09:33 63° ENE 23:10:29 54° ESE
Okean 1 4.1 23:06:09 10° NNW 23:10:03 45° W 23:10:39 41° WSW
Cosmos 2082 Rocket 3.9 23:05:36 10° NW 23:10:07 25° WSW 23:12:49 17° SW
Cosmos 2285 Rocket 4.1 23:12:34 48° SE 23:13:47 56° ESE 23:20:01 10° NNE
Cosmos 1812 4.1 23:11:09 10° NNW 23:14:35 31° W 23:15:11 29° WSW
Okean 1 Rocket 3.4 23:13:53 47° SW 23:14:52 61° W 23:19:18 10° N
Cosmos 1602 3.9 23:16:36 67° NNE 23:16:36 67° NNE 23:20:02 10° N
Cosmos 2123 Rocket 4.2 23:10:29 10° N 23:16:37 54° ENE 23:17:57 45° ESE
Cosmos 1356 4.3 23:20:42 48° N 23:20:42 48° N 23:23:21 10° N
Lacrosse 5 1.9 23:15:57 10° SW 23:21:03 76° NW 23:26:11 10° NE
Genesis I 3.7 23:21:07 53° W 23:21:41 59° NW 23:25:40 10° NNE
H-2A R/B 2.7 23:20:50 38° SW 23:22:21 50° W 23:27:29 10° NNW
Meteor 2-4 Rocket 3.6 23:20:04 10° N 23:25:33 70° ENE 23:26:19 61° SE
Cosmos 1818 4.4 23:32:09 36° E 23:32:09 36° E 23:36:01 10° NE
Cosmos 1544 Rocket 4.1 23:36:48 49° NE 23:36:48 49° NE 23:40:13 10° NNE
Meteor 2-15 Rocket 4.3 23:32:57 10° N 23:39:05 75° E 23:40:05 62° SE
SL-8 R/B 3.8 23:34:27 10° WNW 23:39:16 70° NNE 23:39:35 68° NE
ASTEX 1 4.1 23:38:33 10° N 23:43:19 48° WNW 23:44:25 41° WSW
Meteor 2-14 Rocket 4.3 23:42:33 60° S 23:43:48 89° WNW 23:50:00 10° N
Cosmos 1633 3.7 23:44:52 43° NNW 23:44:52 43° NNW 23:47:32 10° N
Meteor 2-15 4.3 23:38:59 10° N 23:45:08 85° W 23:46:10 64° S
Iridium 4 Rocket 3.9 23:42:25 10° N 23:48:19 71° W 23:49:23 58° SW
Cosmos 1315 Rocket 3.7 23:51:15 47° N 23:51:15 47° N 23:54:08 10° N
Lacrosse 5 rocket 3.2 23:50:50 10° W 23:54:10 27° NNW 23:57:24 10° NNE
